Regional Weather Roundup
Issued by NWS

Home | Current Version | Previous Version | Text Only | Print | Product List | Glossary On
Versions: 1 2 3 4 5 6 7 8 9 10 11 12 13 14 15 16 17 18 19 20 21 22 23 24 25 26 27 28 29 30 31 32 33 34 35 36 37 38 39 40 41 42 43 44 45 46 47 48 49 50
000
ASUS44 KFWD 010415
RWRTX
NORTH TEXAS HOURLY WEATHER ROUNDUP
NATIONAL WEATHER SERVICE FORT WORTH TX
1000 PM CST SAT FEB 28 2015

NOTE: "FAIR" INDICATES FEW OR NO CLOUDS BELOW 12,000 FEET WITH NO
SIGNIFICANT WEATHER AND/OR OBSTRUCTIONS TO VISIBILITY.

TXZ118-119-010500-
DALLAS/FORT WORTH METROPLEX

CITY           SKY/WX    TMP DP  RH WIND       PRES   REMARKS
DFW AIRPORT    FRZ DRZL  31  29  92 NE7       30.35R FOG     WCI  24
DALLAS LOVE    FRZ DRZL  32  30  92 NE5       30.36R FOG     WCI  27
FTW MEACHAM    CLOUDY    32  30  92 E6        30.34R FOG     WCI  26
DAL-EXECUTIVE  CLOUDY    31  30  96 NE7       30.33S FOG     WCI  24
FTW-ALLIANCE   FRZ DRZL  30  29  96 NE5       30.34R FOG     WCI  25
FTW-SPINKS     CLOUDY    32  31  96 N5        30.34F FOG     WCI  27
ARLINGTON      CLOUDY    33  29  85 N8        30.34S WCI  26
GRAND PRAIRIE  CLOUDY    32  32 100 NE5       30.36R WCI  27
ADDISON        CLOUDY    32  32 100 NE6       30.36S WCI  27
MESQUITE       CLOUDY    32  31  95 N6        30.35S WCI  26
LANCASTER      CLOUDY    32  30  91 N5        30.35S WCI  27
$$

TXZ091>094-102>105-117-120-121-131>134-010500-
NORTH CENTRAL TEXAS

CITY           SKY/WX    TMP DP  RH WIND       PRES   REMARKS
SHRMAN/DENISON MIX PCPN  32  32 100 E5        30.35S WCI  27
GAINESVILLE    MIX PCPN  30  28  94 E3        30.36S
BOWIE          MIX PCPN  30  29  99 CALM      30.33R
BRIDGEPORT     DRIZZLE   30  30 100 E3        30.35S
DECATUR        CLOUDY    30  30 100 E3        30.32S FOG
DENTON         FRZ RAIN  31  29  92 E7        30.35R WCI  24
MCKINNEY       FRZ RAIN  32  30  92 NE6       30.36R WCI  26
GREENVILLE     MIX PCPN  32  32 100 N6        30.35S WCI  26
TERRELL        CLOUDY    33  30  88 N12       30.34S FOG     WCI  24
WAXAHACHIE     CLOUDY    32  32 100 N6        30.34F FOG     WCI  26
CLEBURNE       LGT RAIN  32  32 100 CALM      30.33S
GRANBURY       MIX PCPN  32  31  95 CALM      30.35S
$$

TXZ083>090-098>101-113>116-127>130-139>142-154-155-010500-
WESTERN NORTH TEXAS

CITY           SKY/WX    TMP DP  RH WIND       PRES   REMARKS
WICHITA FALLS  CLOUDY    29  27  92 NE6       30.33R FOG     WCI  23
WF-KICKAPOO    CLOUDY    31  30  96 N5        30.34S FOG     WCI  26
VERNON         CLOUDY    28  25  86 E6        30.33R WCI  22
ABILENE        CLOUDY    28  26  92 NE6       30.28R FOG     WCI  22
BRECKENRIDGE   CLOUDY    31  31 100 CALM      30.31R FOG
GRAHAM         CLOUDY    30  30 100 CALM      30.32R FOG
MINERAL WELLS  CLOUDY    30  29  96 NE3       30.32R
STEPHENVILLE   CLOUDY    31  29  94 NE5       30.32S WCI  26
COMANCHE       CLOUDY    31  31 100 CALM      30.29R FOG
BROWNWOOD      CLOUDY    32  32 100 N8        30.29S FOG     WCI  25
COLEMAN        CLOUDY    31  31 100 E6        30.27S FOG     WCI  25
BRADY          CLOUDY    30  28  93 E5        30.24S FOG     WCI  25
$$

TXZ143>147-156>162-174-175-010500-
CENTRAL TEXAS

CITY           SKY/WX    TMP DP  RH WIND       PRES   REMARKS
WACO           CLOUDY    33  31  92 N8        30.33R FOG     WCI  26
WACO-MCGREGOR    N/A     34  27  75 N8        30.33S WCI  27
HILLSBORO      DRIZZLE   33  31  91 N6        30.33R WCI  27
CORSICANA      LGT RAIN  35  32  88 N9        30.34R FOG     WCI  28
MEXIA          DRIZZLE   34  33  95 MISG      30.30S
HEARNE         CLOUDY    39  37  92 N10       30.30S WCI  32
CAMERON        CLOUDY    36  35  95 N9        30.30S FOG     WCI  29
TEMPLE         CLOUDY    34  28  80 N10       30.30S WCI  26
KILLEEN        FRZ DRZL  32  32 100 N8        30.29R FOG     WCI  25
KILLEEN-SKYLRK CLOUDY    34  27  75 CALM      30.28S
FORT HOOD      CLOUDY    32  32 100 N9        30.29S FOG     WCI  24
GATESVILLE     CLOUDY    32  32 100 CALM      30.33S FOG
HAMILTON       MIX PCPN  32  32 100 NE5       30.30R WCI  27
LAMPASAS       CLOUDY    33  32  98 N5        30.27S FOG     WCI  28
$$

TXZ095>097-106>112-122>126-135>138-148>153-164>167-010500-
EAST TEXAS

CITY           SKY/WX    TMP DP  RH WIND       PRES   REMARKS
PARIS          CLOUDY    32  28  86 CALM      30.37S
SULPHUR SPRNGS LGT RAIN  33  32  97 N7        30.37S WCI  27
MOUNT PLEASANT CLOUDY    36  32  86 N7        30.37R WCI  30
GILMER         RAIN      37  29  75 N6        30.33S WCI  32
MINEOLA        CLOUDY    36  34  93 N5        30.34S FOG     WCI  32
TYLER          CLOUDY    37  31  78 N7        30.31S WCI  32
LONGVIEW       CLOUDY    41  32  70 N6        30.31S WCI  37
MARSHALL       MOCLDY    42  33  71 N7        30.34R WCI  37
ATHENS         CLOUDY    34  32  93 N8        30.31R WCI  27
PALESTINE      CLOUDY    41  39  95 N5        30.31R WCI  38
JACKSONVILLE   LGT RAIN  43  38  84 NE6       30.30S WCI  39
HENDERSON      CLOUDY    42  33  71 N6        30.31S WCI  38
NACOGDOCHES    CLOUDY    46  37  71 NE5       30.29S
LUFKIN         CLOUDY    50  40  68 CALM      30.28R
$$

SUPPLEMENTAL OBSERVATIONS (CENTRAL)

CITY           SKY/WX    TMP DP  RH WIND       PRES   REMARKS
$$

SUPPLEMENTAL OBSERVATIONS (WEST)

CITY           SKY/WX    TMP DP  RH WIND       PRES   REMARKS
$$

SUPPLEMENTAL OBSERVATIONS (EAST)

CITY           SKY/WX    TMP DP  RH WIND       PRES   REMARKS
$$

SUPPLEMENTAL OBSERVATIONS ARE A COLLECTION OF AUTOMATED INSTRUMENTS
THAT ARE MAINTAINED BY A VARIETY OF FEDERAL AND STATE AGENCIES.
CERTAIN ELEMENTS...SUCH AS HUMIDITY VALUES AND SUSTAINED WIND
SPEEDS...MAY BE APPROXIMATED.




USA.gov is the U.S. government's official web portal to all federal, state and local government web resources and services.